User: anonymous   Login
Location: Unspecified
(0.0000°N, 0.0000°E)
Time: 12:05:12
(UTC+00:00)
Language:

Eutelsat I F4 - Orbit

View from above orbital plane
View from above orbital plane
View from above satellite
View from above satellite

Ground track
Ground track

The orbit data is extracted from the following two-line orbital elements,

1 18351U 87078B   18115.92160265 -.00000241  00000-0  00000+0 0  9992
2 18351  15.4727   6.4806 0014320 325.6379 204.9564  0.98690587 97384
Epoch (UTC): 25 April 2018 22:07:06
Eccentricity: 0.0014320
inclination: 15.4727°
perigee height: 36174 km
apogee height: 36296 km
right ascension of ascending node: 6.4806°
argument of perigee: 325.6379°
revolutions per day: 0.98690587
mean anomaly at epoch: 204.9564°
orbit number at epoch: 9738

The dashed part of the orbit path shows where the satellite is in the earth's shadow,  

DLR